| time (UTC) | temp F | wind direction | speed MPH | gust MPH | rain 1hr in | rain 24hr in | rain mn in | humidity % | barometer mb |
| 20260509222541 | 64 | 115 | 2.0 | 4.0 | 0.00 | 0.07 | 0.07 | 64 | 1008.8 |
| 20260509222041 | 64 | 119 | 2.0 | 4.0 | 0.00 | 0.07 | 0.07 | 64 | 1008.7 |
| 20260509221551 | 64 | 0 | 1.0 | 4.0 | 0.00 | 0.07 | 0.07 | 66 | 1008.9 |
| 20260509221042 | 64 | 107 | 1.0 | 4.0 | 0.00 | 0.07 | 0.07 | 66 | 1008.9 |
| 20260509220542 | 64 | 101 | 2.0 | 6.0 | 0.00 | 0.07 | 0.07 | 68 | 1008.8 |
| 20260509220054 | 64 | 94 | 2.0 | 6.0 | 0.00 | 0.07 | 0.07 | 68 | 1008.9 |
| 20260509215541 | 64 | 141 | 1.0 | 4.0 | 0.00 | 0.07 | 0.07 | 67 | 1008.8 |
| 20260509215041 | 64 | 144 | 1.0 | 3.0 | 0.00 | 0.07 | 0.07 | 67 | 1008.9 |
| 20260509214546 | 64 | 144 | 1.0 | 5.0 | 0.00 | 0.07 | 0.07 | 69 | 1008.9 |
| 20260509214041 | 64 | 144 | 1.0 | 5.0 | 0.00 | 0.07 | 0.07 | 66 | 1008.9 |
| 20260509213540 | 64 | 145 | 1.0 | 6.0 | 0.00 | 0.07 | 0.07 | 67 | 1008.9 |
| 20260509213054 | 64 | 0 | 2.0 | 6.0 | 0.00 | 0.07 | 0.07 | 67 | 1008.9 |
| 20260509212539 | 64 | 124 | 2.0 | 8.0 | 0.00 | 0.07 | 0.07 | 66 | 1008.9 |
| 20260509212041 | 64 | 121 | 1.0 | 8.0 | 0.00 | 0.07 | 0.07 | 65 | 1009.0 |
| 20260509211552 | 64 | 105 | 2.0 | 7.0 | 0.00 | 0.07 | 0.07 | 66 | 1009.0 |
| 20260509211042 | 64 | 144 | 3.0 | 5.0 | 0.00 | 0.07 | 0.07 | 68 | 1009.1 |
| 20260509210539 | 64 | 146 | 1.0 | 5.0 | 0.00 | 0.07 | 0.07 | 70 | 1009.2 |
| 20260509210100 | 63 | 178 | 1.0 | 6.0 | 0.00 | 0.07 | 0.07 | 66 | 1009.2 |
| 20260509205541 | 63 | 173 | 2.0 | 6.0 | 0.00 | 0.07 | 0.07 | 66 | 1009.3 |
| 20260509205041 | 63 | 146 | 1.0 | 5.0 | 0.00 | 0.07 | 0.07 | 69 | 1009.3 |
| 20260509204554 | 63 | 0 | 0.0 | 5.0 | 0.00 | 0.07 | 0.07 | 66 | 1009.3 |
| 20260509204041 | 63 | 0 | 1.0 | 5.0 | 0.00 | 0.07 | 0.07 | 66 | 1009.4 |
| 20260509203538 | 63 | 160 | 2.0 | 5.0 | 0.00 | 0.07 | 0.07 | 67 | 1009.3 |
| 20260509203053 | 63 | 160 | 0.0 | 6.0 | 0.00 | 0.07 | 0.07 | 68 | 1009.3 |
| 20260509202538 | 63 | 160 | 2.0 | 6.0 | 0.00 | 0.07 | 0.07 | 67 | 1009.3 |
| 20260509202045 | 63 | 161 | 3.0 | 6.0 | 0.00 | 0.07 | 0.07 | 67 | 1009.4 |
| 20260509201546 | 63 | 160 | 1.0 | 5.0 | 0.00 | 0.07 | 0.07 | 68 | 1009.4 |
| 20260509201041 | 63 | 170 | 2.0 | 8.0 | 0.00 | 0.07 | 0.07 | 68 | 1009.4 |
| 20260509200541 | 62 | 191 | 2.0 | 8.0 | 0.00 | 0.07 | 0.07 | 70 | 1009.5 |
| 20260509200049 | 62 | 0 | 2.0 | 7.0 | 0.00 | 0.07 | 0.07 | 71 | 1009.5 |
| 20260509195545 | 62 | 138 | 3.0 | 7.0 | 0.00 | 0.07 | 0.07 | 70 | 1009.4 |
| 20260509195042 | 62 | 96 | 3.0 | 8.0 | 0.00 | 0.07 | 0.07 | 70 | 1009.2 |
| 20260509194552 | 62 | 144 | 2.0 | 8.0 | 0.00 | 0.07 | 0.07 | 71 | 1009.3 |
| 20260509194038 | 62 | 111 | 4.0 | 8.0 | 0.00 | 0.07 | 0.07 | 70 | 1009.3 |
| 20260509193542 | 62 | 122 | 4.0 | 9.0 | 0.00 | 0.07 | 0.07 | 72 | 1009.3 |
| 20260509193053 | 62 | 117 | 4.0 | 9.0 | 0.00 | 0.07 | 0.07 | 72 | 1009.4 |
| 20260509192543 | 62 | 124 | 2.0 | 4.0 | 0.00 | 0.07 | 0.07 | 71 | 1009.5 |
| 20260509192042 | 62 | 101 | 1.0 | 4.0 | 0.00 | 0.07 | 0.07 | 71 | 1009.4 |
| 20260509191548 | 62 | 97 | 1.0 | 7.0 | 0.00 | 0.07 | 0.07 | 71 | 1009.4 |
| 20260509191041 | 63 | 98 | 4.0 | 7.0 | 0.00 | 0.07 | 0.07 | 69 | 1009.6 |
| 20260509190542 | 63 | 123 | 1.0 | 6.0 | 0.00 | 0.07 | 0.07 | 73 | 1009.4 |
| 20260509190054 | 63 | 136 | 1.0 | 6.0 | 0.00 | 0.07 | 0.07 | 70 | 1009.5 |
| 20260509185541 | 63 | 188 | 2.0 | 7.0 | 0.00 | 0.07 | 0.07 | 73 | 1009.6 |
| 20260509185042 | 62 | 236 | 2.0 | 7.0 | 0.00 | 0.07 | 0.07 | 71 | 1009.6 |
| 20260509184638 | 62 | 198 | 3.0 | 7.0 | 0.00 | 0.07 | 0.07 | 71 | 1009.8 |
| 20260509184045 | 62 | 213 | 1.0 | 7.0 | 0.00 | 0.07 | 0.07 | 74 | 1009.7 |
| 20260509183541 | 61 | 152 | 3.0 | 7.0 | 0.00 | 0.07 | 0.07 | 74 | 1009.8 |
| 20260509183055 | 61 | 108 | 0.0 | 9.0 | 0.00 | 0.07 | 0.07 | 75 | 1009.9 |
| 20260509182541 | 61 | 121 | 2.0 | 9.0 | 0.00 | 0.07 | 0.07 | 76 | 1010.2 |
| 20260509182041 | 61 | 125 | 4.0 | 9.0 | 0.00 | 0.07 | 0.07 | 77 | 1010.2 |
| 20260509181558 | 60 | 111 | 2.0 | 10.0 | 0.00 | 0.07 | 0.07 | 76 | 1010.3 |
| 20260509181041 | 60 | 0 | 1.0 | 10.0 | 0.00 | 0.07 | 0.07 | 77 | 1010.5 |
| 20260509180541 | 60 | 175 | 2.0 | 7.0 | 0.00 | 0.07 | 0.07 | 78 | 1010.4 |
| 20260509180050 | 59 | 166 | 3.0 | 9.0 | 0.00 | 0.07 | 0.07 | 77 | 1010.5 |
| 20260509175544 | 59 | 177 | 4.0 | 10.0 | 0.00 | 0.07 | 0.07 | 78 | 1010.6 |
| 20260509175042 | 59 | 139 | 5.0 | 10.0 | 0.00 | 0.07 | 0.07 | 79 | 1010.7 |
| 20260509174547 | 59 | 94 | 5.0 | 8.0 | 0.00 | 0.07 | 0.07 | 80 | 1010.5 |
| 20260509174042 | 58 | 117 | 3.0 | 6.0 | 0.00 | 0.07 | 0.07 | 80 | 1010.7 |
| 20260509173540 | 58 | 127 | 2.0 | 5.0 | 0.00 | 0.07 | 0.07 | 81 | 1010.8 |
| 20260509173047 | 57 | 142 | 3.0 | 8.0 | 0.00 | 0.07 | 0.07 | 81 | 1010.8 |
| 20260509172542 | 57 | 0 | 3.0 | 8.0 | 0.00 | 0.07 | 0.07 | 82 | 1011.0 |
| 20260509172042 | 56 | 130 | 1.0 | 6.0 | 0.00 | 0.07 | 0.07 | 82 | 1011.1 |
| 20260509171551 | 56 | 341 | 4.0 | 6.0 | 0.00 | 0.07 | 0.07 | 82 | 1010.8 |
| 20260509171044 | 56 | 332 | 3.0 | 6.0 | 0.00 | 0.07 | 0.07 | 82 | 1011.0 |
| 20260509170541 | 56 | 337 | 1.0 | 3.0 | 0.00 | 0.07 | 0.07 | 82 | 1010.9 |
| 20260509170059 | 56 | 154 | 0.0 | 3.0 | 0.00 | 0.07 | 0.07 | 81 | 1011.2 |
| 20260509165539 | 56 | 151 | 0.0 | 7.0 | 0.00 | 0.07 | 0.07 | 81 | 1011.2 |
| 20260509165042 | 56 | 149 | 0.0 | 7.0 | 0.00 | 0.07 | 0.07 | 81 | 1010.9 |
| 20260509164554 | 56 | 149 | 4.0 | 7.0 | 0.00 | 0.07 | 0.07 | 82 | 1011.2 |
| 20260509164043 | 56 | 135 | 2.0 | 7.0 | 0.00 | 0.07 | 0.07 | 82 | 1011.3 |
| 20260509163539 | 56 | 149 | 2.0 | 8.0 | 0.00 | 0.07 | 0.07 | 83 | 1011.3 |
| 20260509163105 | 56 | 146 | 1.0 | 9.0 | 0.00 | 0.07 | 0.07 | 84 | 1011.3 |
| 20260509162544 | 56 | 156 | 4.0 | 9.0 | 0.00 | 0.07 | 0.07 | 84 | 1011.4 |
| 20260509162041 | 56 | 137 | 3.0 | 10.0 | 0.00 | 0.07 | 0.07 | 85 | 1011.2 |
| 20260509161546 | 55 | 138 | 4.0 | 13.0 | 0.00 | 0.07 | 0.07 | 85 | 1011.3 |
| 20260509161043 | 55 | 178 | 7.0 | 13.0 | 0.00 | 0.07 | 0.07 | 84 | 1011.2 |
| 20260509160541 | 56 | 140 | 4.0 | 11.0 | 0.00 | 0.07 | 0.07 | 86 | 1011.3 |
| 20260509160052 | 56 | 153 | 5.0 | 11.0 | 0.00 | 0.07 | 0.07 | 86 | 1011.3 |
| 20260509155543 | 56 | 142 | 6.0 | 11.0 | 0.00 | 0.07 | 0.07 | 86 | 1011.2 |
| 20260509155041 | 56 | 124 | 6.0 | 11.0 | 0.00 | 0.07 | 0.07 | 86 | 1011.2 |
| 20260509154550 | 56 | 131 | 3.0 | 10.0 | 0.01 | 0.07 | 0.07 | 86 | 1011.2 |
| 20260509154044 | 56 | 114 | 5.0 | 10.0 | 0.01 | 0.07 | 0.07 | 85 | 1011.2 |
| 20260509153541 | 56 | 127 | 2.0 | 10.0 | 0.02 | 0.07 | 0.07 | 86 | 1011.2 |
| 20260509153049 | 55 | 128 | 5.0 | 10.0 | 0.02 | 0.07 | 0.07 | 85 | 1011.1 |
| 20260509152542 | 55 | 143 | 6.0 | 9.0 | 0.03 | 0.07 | 0.07 | 87 | 1010.9 |
| 20260509152041 | 54 | 76 | 0.0 | 10.0 | 0.04 | 0.07 | 0.07 | 86 | 1010.8 |
| 20260509151555 | 54 | 350 | 2.0 | 10.0 | 0.05 | 0.07 | 0.07 | 88 | 1010.8 |
| 20260509151041 | 54 | 5 | 3.0 | 7.0 | 0.06 | 0.07 | 0.07 | 87 | 1010.9 |
| 20260509150542 | 53 | 74 | 2.0 | 7.0 | 0.07 | 0.07 | 0.07 | 87 | 1011.0 |
| 20260509150056 | 53 | 0 | 2.0 | 5.0 | 0.07 | 0.07 | 0.07 | 88 | 1011.1 |
| 20260509145542 | 53 | 17 | 1.0 | 6.0 | 0.07 | 0.07 | 0.07 | 87 | 1011.0 |
| 20260509145039 | 53 | 350 | 4.0 | 8.0 | 0.07 | 0.07 | 0.07 | 88 | 1011.4 |
| 20260509144553 | 53 | 0 | 3.0 | 8.0 | 0.06 | 0.06 | 0.06 | 89 | 1011.3 |
| 20260509144042 | 53 | 69 | 4.0 | 7.0 | 0.06 | 0.06 | 0.06 | 88 | 1011.4 |
| 20260509143601 | 53 | 113 | 1.0 | 4.0 | 0.05 | 0.05 | 0.05 | 88 | 1011.4 |
| 20260509143055 | 54 | 113 | 2.0 | 7.0 | 0.05 | 0.05 | 0.05 | 87 | 1011.5 |
| 20260509142542 | 54 | 126 | 2.0 | 7.0 | 0.04 | 0.04 | 0.04 | 86 | 1011.4 |
| 20260509142045 | 54 | 115 | 5.0 | 8.0 | 0.03 | 0.03 | 0.03 | 84 | 1011.6 |
| 20260509141601 | 54 | 264 | 1.0 | 11.0 | 0.02 | 0.02 | 0.02 | 83 | 1011.5 |
| 20260509141045 | 54 | 288 | 5.0 | 13.0 | 0.01 | 0.01 | 0.01 | 82 | 1011.3 |
| 20260509140541 | 54 | 275 | 7.0 | 13.0 | 0.00 | 0.00 | 0.00 | 82 | 1011.2 |
| 20260509140100 | 54 | 285 | 6.0 | 11.0 | 0.00 | 0.00 | 0.00 | 83 | 1011.1 |
| 20260509135541 | 54 | 311 | 6.0 | 12.0 | 0.00 | 0.00 | 0.00 | 82 | 1011.1 |
| 20260509135038 | 54 | 294 | 6.0 | 12.0 | 0.00 | 0.00 | 0.00 | 82 | 1011.2 |
| 20260509134551 | 55 | 295 | 8.0 | 12.0 | 0.00 | 0.00 | 0.00 | 80 | 1011.2 |
| 20260509134041 | 55 | 302 | 7.0 | 14.0 | 0.00 | 0.00 | 0.00 | 80 | 1011.1 |
| 20260509133541 | 55 | 286 | 7.0 | 14.0 | 0.00 | 0.00 | 0.00 | 79 | 1011.1 |
| 20260509133052 | 55 | 265 | 8.0 | 14.0 | 0.00 | 0.00 | 0.00 | 78 | 1011.1 |
| 20260509132538 | 55 | 270 | 8.0 | 13.0 | 0.00 | 0.00 | 0.00 | 77 | 1011.1 |
| 20260509132038 | 56 | 285 | 7.0 | 16.0 | 0.00 | 0.00 | 0.00 | 75 | 1011.1 |
| 20260509131551 | 56 | 269 | 9.0 | 16.0 | 0.00 | 0.00 | 0.00 | 73 | 1010.9 |
| 20260509131041 | 57 | 277 | 9.0 | 17.0 | 0.00 | 0.00 | 0.00 | 71 | 1010.9 |
| 20260509130544 | 57 | 281 | 10.0 | 17.0 | 0.00 | 0.00 | 0.00 | 71 | 1010.8 |
| 20260509130051 | 57 | 265 | 11.0 | 17.0 | 0.00 | 0.00 | 0.00 | 70 | 1010.8 |
| 20260509125542 | 57 | 269 | 13.0 | 17.0 | 0.00 | 0.00 | 0.00 | 69 | 1010.8 |
| 20260509125043 | 57 | 294 | 11.0 | 16.0 | 0.00 | 0.00 | 0.00 | 69 | 1010.8 |
| 20260509124558 | 57 | 261 | 7.0 | 13.0 | 0.00 | 0.00 | 0.00 | 69 | 1010.8 |
| 20260509124041 | 57 | 259 | 6.0 | 14.0 | 0.00 | 0.00 | 0.00 | 69 | 1010.8 |
| 20260509123541 | 57 | 287 | 8.0 | 14.0 | 0.00 | 0.00 | 0.00 | 68 | 1010.8 |
| 20260509123057 | 57 | 231 | 6.0 | 12.0 | 0.00 | 0.00 | 0.00 | 68 | 1010.7 |
| 20260509122541 | 57 | 261 | 5.0 | 12.0 | 0.00 | 0.00 | 0.00 | 68 | 1010.8 |
| 20260509122038 | 57 | 269 | 6.0 | 13.0 | 0.00 | 0.00 | 0.00 | 68 | 1010.7 |
| 20260509121545 | 57 | 270 | 7.0 | 13.0 | 0.00 | 0.00 | 0.00 | 68 | 1010.7 |
| 20260509121041 | 57 | 266 | 6.0 | 14.0 | 0.00 | 0.00 | 0.00 | 68 | 1010.9 |
| 20260509120538 | 57 | 262 | 7.0 | 14.0 | 0.00 | 0.00 | 0.00 | 69 | 1010.9 |
| 20260509120054 | 56 | 261 | 5.0 | 14.0 | 0.00 | 0.00 | 0.00 | 71 | 1010.9 |
| 20260509115537 | 56 | 275 | 6.0 | 14.0 | 0.00 | 0.00 | 0.00 | 69 | 1010.9 |
| 20260509115040 | 56 | 254 | 8.0 | 15.0 | 0.00 | 0.00 | 0.00 | 71 | 1010.9 |
| 20260509114552 | 55 | 269 | 9.0 | 15.0 | 0.00 | 0.00 | 0.00 | 74 | 1010.7 |
| 20260509114043 | 53 | 272 | 8.0 | 13.0 | 0.00 | 0.00 | 0.00 | 78 | 1010.6 |
| 20260509113543 | 51 | 288 | 3.0 | 7.0 | 0.00 | 0.00 | 0.00 | 87 | 1010.7 |
| 20260509113133 | 51 | 295 | 0.0 | 1.0 | 0.00 | 0.00 | 0.00 | 88 | 1010.8 |
| 20260509112542 | 50 | 0 | 0.0 | 3.0 | 0.00 | 0.00 | 0.00 | 88 | 1010.9 |
| 20260509112041 | 50 | 0 | 0.0 | 3.0 | 0.00 | 0.00 | 0.00 | 88 | 1011.0 |
| 20260509111555 | 50 | 0 | 1.0 | 3.0 | 0.00 | 0.00 | 0.00 | 88 | 1010.8 |
| 20260509111042 | 50 | 0 | 0.0 | 2.0 | 0.00 | 0.00 | 0.00 | 88 | 1010.8 |
| 20260509110545 | 50 | 295 | 0.0 | 1.0 | 0.00 | 0.00 | 0.00 | 88 | 1010.7 |
| 20260509110049 | 49 | 0 | 0.0 | 2.0 | 0.00 | 0.00 | 0.00 | 88 | 1010.6 |
| 20260509105541 | 49 | 0 | 0.0 | 2.0 | 0.00 | 0.00 | 0.00 | 88 | 1010.6 |
| 20260509105042 | 49 | 0 | 0.0 | 3.0 | 0.00 | 0.00 | 0.00 | 88 | 1010.6 |
| 20260509104555 | 49 | 0 | 1.0 | 3.0 | 0.00 | 0.00 | 0.00 | 88 | 1010.4 |
| 20260509104040 | 49 | 294 | 1.0 | 3.0 | 0.00 | 0.00 | 0.00 | 88 | 1010.6 |
| 20260509103542 | 49 | 294 | 0.0 | 3.0 | 0.00 | 0.00 | 0.00 | 88 | 1010.6 |
| 20260509103057 | 49 | 294 | 0.0 | 4.0 | 0.00 | 0.00 | 0.00 | 88 | 1010.5 |
| 20260509102542 | 49 | 0 | 2.0 | 4.0 | 0.00 | 0.00 | 0.00 | 89 | 1010.4 |
| 20260509102038 | 49 | 0 | 0.0 | 2.0 | 0.00 | 0.00 | 0.00 | 88 | 1010.2 |
| 20260509101544 | 49 | 288 | 0.0 | 4.0 | 0.00 | 0.00 | 0.00 | 88 | 1010.2 |
| 20260509101038 | 49 | 0 | 0.0 | 4.0 | 0.00 | 0.00 | 0.00 | 88 | 1010.3 |
| 20260509100541 | 49 | 288 | 1.0 | 7.0 | 0.00 | 0.00 | 0.00 | 88 | 1010.2 |
| 20260509100108 | 49 | 0 | 2.0 | 7.0 | 0.00 | 0.00 | 0.00 | 88 | 1010.4 |
| 20260509095542 | 49 | 289 | 0.0 | 4.0 | 0.00 | 0.00 | 0.00 | 88 | 1010.5 |
| 20260509095041 | 49 | 0 | 0.0 | 1.0 | 0.00 | 0.00 | 0.00 | 88 | 1010.2 |
| 20260509094554 | 49 | 0 | 0.0 | 1.0 | 0.00 | 0.00 | 0.00 | 88 | 1010.3 |
| 20260509094041 | 49 | 0 | 0.0 | 1.0 | 0.00 | 0.00 | 0.00 | 88 | 1010.3 |
| 20260509093542 | 49 | 0 | 0.0 | 0.0 | 0.00 | 0.00 | 0.00 | 88 | 1010.4 |
| 20260509093047 | 48 | 0 | 0.0 | 0.0 | 0.00 | 0.00 | 0.00 | 88 | 1010.5 |
| 20260509092543 | 48 | 0 | 0.0 | 0.0 | 0.00 | 0.00 | 0.00 | 88 | 1010.4 |
| 20260509092040 | 48 | 0 | 0.0 | 0.0 | 0.00 | 0.00 | 0.00 | 88 | 1010.4 |
| 20260509091603 | 49 | 0 | 0.0 | 0.0 | 0.00 | 0.00 | 0.00 | 88 | 1010.4 |
| 20260509091041 | 49 | 0 | 0.0 | 0.0 | 0.00 | 0.00 | 0.00 | 88 | 1010.5 |
| 20260509090541 | 49 | 0 | 0.0 | 0.0 | 0.00 | 0.00 | 0.00 | 88 | 1010.4 |
| 20260509090056 | 49 | 0 | 0.0 | 0.0 | 0.00 | 0.00 | 0.00 | 87 | 1010.3 |
| 20260509085540 | 49 | 0 | 0.0 | 1.0 | 0.00 | 0.00 | 0.00 | 87 | 1010.3 |
| 20260509085044 | 49 | 0 | 0.0 | 1.0 | 0.00 | 0.00 | 0.00 | 88 | 1010.4 |
| 20260509084551 | 49 | 0 | 0.0 | 1.0 | 0.00 | 0.00 | 0.00 | 87 | 1010.3 |
| 20260509084041 | 49 | 0 | 0.0 | 1.0 | 0.00 | 0.00 | 0.00 | 87 | 1010.4 |
| 20260509083541 | 49 | 0 | 0.0 | 3.0 | 0.00 | 0.00 | 0.00 | 87 | 1010.6 |
| 20260509083048 | 49 | 0 | 0.0 | 3.0 | 0.00 | 0.00 | 0.00 | 87 | 1010.5 |
| 20260509082541 | 49 | 0 | 1.0 | 3.0 | 0.00 | 0.00 | 0.00 | 87 | 1010.6 |
| 20260509082041 | 49 | 0 | 0.0 | 0.0 | 0.00 | 0.00 | 0.00 | 86 | 1010.7 |
| 20260509081559 | 49 | 0 | 0.0 | 2.0 | 0.00 | 0.00 | 0.00 | 86 | 1010.7 |
| 20260509081041 | 49 | 0 | 0.0 | 2.0 | 0.00 | 0.00 | 0.00 | 86 | 1010.7 |
| 20260509080541 | 49 | 289 | 0.0 | 3.0 | 0.00 | 0.00 | 0.00 | 86 | 1010.8 |
| 20260509080051 | 49 | 0 | 0.0 | 3.0 | 0.00 | 0.00 | 0.00 | 85 | 1010.6 |
| 20260509075541 | 49 | 0 | 0.0 | 2.0 | 0.00 | 0.00 | 0.00 | 85 | 1010.6 |
| 20260509075041 | 49 | 0 | 0.0 | 2.0 | 0.00 | 0.00 | 0.00 | 85 | 1010.7 |
| 20260509074546 | 49 | 0 | 0.0 | 4.0 | 0.00 | 0.00 | 0.00 | 85 | 1010.8 |
| 20260509074040 | 48 | 289 | 0.0 | 4.0 | 0.00 | 0.00 | 0.00 | 86 | 1010.7 |
| 20260509073541 | 48 | 289 | 0.0 | 4.0 | 0.00 | 0.00 | 0.00 | 87 | 1010.7 |
| 20260509073048 | 48 | 290 | 2.0 | 4.0 | 0.00 | 0.00 | 0.00 | 87 | 1010.6 |
| 20260509072543 | 48 | 0 | 0.0 | 0.0 | 0.00 | 0.00 | 0.00 | 86 | 1010.7 |
| 20260509072042 | 48 | 0 | 0.0 | 0.0 | 0.00 | 0.00 | 0.00 | 86 | 1010.8 |
| 20260509071550 | 48 | 0 | 0.0 | 2.0 | 0.00 | 0.00 | 0.00 | 86 | 1010.9 |
| 20260509071041 | 48 | 0 | 0.0 | 2.0 | 0.00 | 0.00 | 0.00 | 86 | 1010.8 |
| 20260509070542 | 49 | 0 | 0.0 | 0.0 | 0.00 | 0.00 | 0.00 | 86 | 1010.8 |
| 20260509070051 | 49 | 0 | 0.0 | 0.0 | 0.00 | 0.00 | 0.00 | 86 | 1010.8 |
| 20260509065541 | 49 | 0 | 0.0 | 0.0 | 0.00 | 0.00 | 0.00 | 86 | 1010.8 |
| 20260509065041 | 49 | 0 | 0.0 | 0.0 | 0.00 | 0.00 | 0.00 | 86 | 1010.8 |
| 20260509064547 | 49 | 0 | 0.0 | 2.0 | 0.00 | 0.00 | 0.00 | 86 | 1010.9 |
| 20260509064042 | 49 | 0 | 0.0 | 2.0 | 0.00 | 0.00 | 0.00 | 86 | 1010.8 |
| 20260509063540 | 49 | 0 | 0.0 | 2.0 | 0.00 | 0.00 | 0.00 | 85 | 1010.8 |
| 20260509063049 | 49 | 0 | 0.0 | 0.0 | 0.00 | 0.00 | 0.00 | 86 | 1010.8 |
| 20260509062541 | 49 | 0 | 0.0 | 0.0 | 0.00 | 0.00 | 0.00 | 86 | 1010.9 |
| 20260509062042 | 49 | 0 | 0.0 | 0.0 | 0.00 | 0.00 | 0.00 | 86 | 1010.8 |
| 20260509061601 | 49 | 0 | 0.0 | 2.0 | 0.00 | 0.00 | 0.00 | 85 | 1011.0 |
| 20260509061040 | 49 | 0 | 0.0 | 2.0 | 0.00 | 0.00 | 0.00 | 85 | 1011.1 |
| 20260509060541 | 50 | 290 | 1.0 | 2.0 | 0.00 | 0.00 | 0.00 | 84 | 1011.1 |
| 20260509060044 | 50 | 0 | 0.0 | 0.0 | 0.00 | 0.00 | 0.00 | 84 | 1011.1 |
| 20260509055544 | 50 | 0 | 0.0 | 0.0 | 0.00 | 0.00 | 0.00 | 84 | 1011.2 |
| 20260509055042 | 50 | 0 | 0.0 | 0.0 | 0.00 | 0.00 | 0.00 | 83 | 1011.1 |
| 20260509054559 | 50 | 0 | 0.0 | 0.0 | 0.00 | 0.00 | 0.00 | 83 | 1011.0 |
| 20260509054042 | 50 | 0 | 0.0 | 1.0 | 0.00 | 0.00 | 0.00 | 83 | 1011.1 |
| 20260509053542 | 50 | 0 | 0.0 | 2.0 | 0.00 | 0.00 | 0.00 | 82 | 1011.1 |
| 20260509053058 | 50 | 0 | 0.0 | 2.0 | 0.00 | 0.00 | 0.00 | 82 | 1011.2 |
| 20260509052542 | 50 | 290 | 1.0 | 2.0 | 0.00 | 0.00 | 0.00 | 83 | 1011.2 |
| 20260509052040 | 50 | 290 | 1.0 | 2.0 | 0.00 | 0.00 | 0.00 | 83 | 1011.1 |
| 20260509051550 | 50 | 290 | 0.0 | 2.0 | 0.00 | 0.00 | 0.00 | 84 | 1011.2 |
| 20260509051045 | 50 | 290 | 1.0 | 2.0 | 0.00 | 0.00 | 0.00 | 85 | 1011.2 |
| 20260509050542 | 50 | 290 | 1.0 | 2.0 | 0.00 | 0.00 | 0.00 | 85 | 1011.3 |
| 20260509050044 | 50 | 290 | 0.0 | 1.0 | 0.00 | 0.00 | 0.00 | 85 | 1011.3 |
| 20260509045542 | 50 | 0 | 0.0 | 0.0 | 0.00 | 0.00 | 0.00 | 85 | 1011.4 |
| 20260509045041 | 50 | 0 | 0.0 | 0.0 | 0.00 | 0.00 | 0.00 | 84 | 1011.4 |
| 20260509044556 | 50 | 0 | 0.0 | 0.0 | 0.00 | 0.00 | 0.00 | 84 | 1011.4 |
| 20260509044040 | 50 | 0 | 0.0 | 3.0 | 0.00 | 0.00 | 0.00 | 85 | 1011.5 |
| 20260509043545 | 50 | 0 | 1.0 | 3.0 | 0.00 | 0.00 | 0.00 | 84 | 1011.5 |
| 20260509043047 | 50 | 290 | 1.0 | 2.0 | 0.00 | 0.00 | 0.00 | 84 | 1011.6 |
| 20260509042541 | 50 | 290 | 0.0 | 1.0 | 0.00 | 0.00 | 0.00 | 83 | 1011.6 |
| 20260509042043 | 50 | 0 | 0.0 | 0.0 | 0.00 | 0.00 | 0.00 | 83 | 1011.6 |
| 20260509041546 | 50 | 0 | 0.0 | 0.0 | 0.00 | 0.00 | 0.00 | 82 | 1011.6 |
| 20260509041042 | 50 | 0 | 0.0 | 0.0 | 0.00 | 0.00 | 0.00 | 81 | 1011.7 |
| 20260509040540 | 50 | 0 | 0.0 | 2.0 | 0.00 | 0.00 | 0.00 | 81 | 1011.6 |
| 20260509040051 | 50 | 0 | 0.0 | 2.0 | 0.00 | 0.00 | 0.00 | 82 | 1011.6 |
| 20260509035542 | 50 | 290 | 1.0 | 2.0 | 0.00 | 0.00 | 0.00 | 82 | 1011.7 |
| 20260509035042 | 50 | 290 | 0.0 | 2.0 | 0.00 | 0.00 | 0.00 | 82 | 1011.7 |
| 20260509034559 | 51 | 0 | 0.0 | 2.0 | 0.00 | 0.00 | 0.00 | 82 | 1011.8 |
| 20260509034041 | 51 | 290 | 0.0 | 2.0 | 0.00 | 0.00 | 0.00 | 81 | 1011.8 |
| 20260509033543 | 51 | 290 | 1.0 | 2.0 | 0.00 | 0.00 | 0.00 | 80 | 1011.8 |
| 20260509033054 | 52 | 290 | 0.0 | 2.0 | 0.00 | 0.00 | 0.00 | 80 | 1011.8 |
| 20260509032542 | 52 | 0 | 0.0 | 2.0 | 0.00 | 0.00 | 0.00 | 79 | 1011.9 |
| 20260509032044 | 52 | 0 | 0.0 | 3.0 | 0.00 | 0.00 | 0.00 | 79 | 1012.0 |
| 20260509031554 | 52 | 290 | 1.0 | 3.0 | 0.00 | 0.00 | 0.00 | 80 | 1012.0 |
| 20260509031041 | 52 | 290 | 2.0 | 3.0 | 0.00 | 0.00 | 0.00 | 80 | 1012.1 |
| 20260509030541 | 52 | 281 | 1.0 | 3.0 | 0.00 | 0.00 | 0.00 | 82 | 1012.1 |
| 20260509030048 | 52 | 281 | 2.0 | 3.0 | 0.00 | 0.00 | 0.00 | 82 | 1012.2 |
| 20260509025541 | 52 | 281 | 0.0 | 3.0 | 0.00 | 0.00 | 0.00 | 79 | 1012.2 |
| 20260509025041 | 52 | 279 | 1.0 | 3.0 | 0.00 | 0.00 | 0.00 | 81 | 1012.3 |
| 20260509024545 | 52 | 0 | 1.0 | 3.0 | 0.00 | 0.00 | 0.00 | 80 | 1012.1 |
| 20260509024041 | 52 | 0 | 0.0 | 3.0 | 0.00 | 0.00 | 0.00 | 79 | 1012.2 |
| 20260509023540 | 52 | 0 | 2.0 | 3.0 | 0.00 | 0.00 | 0.00 | 80 | 1012.3 |
| 20260509023044 | 52 | 281 | 0.0 | 4.0 | 0.00 | 0.00 | 0.00 | 80 | 1012.3 |
| 20260509022540 | 52 | 281 | 2.0 | 4.0 | 0.00 | 0.00 | 0.00 | 80 | 1012.4 |
| 20260509022042 | 52 | 0 | 0.0 | 3.0 | 0.00 | 0.00 | 0.00 | 78 | 1012.2 |
| 20260509021551 | 52 | 269 | 0.0 | 2.0 | 0.00 | 0.00 | 0.00 | 79 | 1012.2 |
| 20260509021039 | 52 | 0 | 0.0 | 4.0 | 0.00 | 0.00 | 0.00 | 78 | 1012.2 |
| 20260509020541 | 52 | 269 | 2.0 | 4.0 | 0.00 | 0.00 | 0.00 | 77 | 1012.2 |
| 20260509020050 | 53 | 269 | 2.0 | 8.0 | 0.00 | 0.00 | 0.00 | 77 | 1012.2 |
| 20260509015541 | 52 | 0 | 1.0 | 8.0 | 0.00 | 0.00 | 0.00 | 76 | 1012.2 |
| 20260509015042 | 52 | 316 | 1.0 | 3.0 | 0.00 | 0.00 | 0.00 | 78 | 1012.3 |
| 20260509014551 | 52 | 0 | 0.0 | 0.0 | 0.00 | 0.00 | 0.00 | 78 | 1012.2 |
| 20260509014040 | 53 | 0 | 0.0 | 0.0 | 0.00 | 0.00 | 0.00 | 78 | 1012.1 |
| 20260509013541 | 53 | 0 | 0.0 | 0.0 | 0.00 | 0.00 | 0.00 | 78 | 1012.0 |
| 20260509013051 | 53 | 0 | 0.0 | 0.0 | 0.00 | 0.00 | 0.00 | 77 | 1011.8 |
| 20260509012543 | 53 | 0 | 0.0 | 0.0 | 0.00 | 0.00 | 0.00 | 76 | 1011.9 |
| 20260509012041 | 53 | 0 | 0.0 | 0.0 | 0.00 | 0.00 | 0.00 | 75 | 1011.9 |
| 20260509011547 | 53 | 0 | 0.0 | 0.0 | 0.00 | 0.00 | 0.00 | 74 | 1011.9 |
| 20260509011040 | 53 | 0 | 0.0 | 0.0 | 0.00 | 0.00 | 0.00 | 73 | 1011.8 |
| 20260509010540 | 53 | 0 | 0.0 | 3.0 | 0.00 | 0.00 | 0.00 | 73 | 1011.8 |
| 20260509010052 | 53 | 0 | 0.0 | 5.0 | 0.00 | 0.00 | 0.00 | 74 | 1011.7 |
| 20260509005542 | 53 | 313 | 3.0 | 5.0 | 0.00 | 0.00 | 0.00 | 75 | 1011.7 |
| 20260509005040 | 54 | 306 | 2.0 | 5.0 | 0.00 | 0.00 | 0.00 | 74 | 1011.6 |
| 20260509004553 | 54 | 0 | 0.0 | 3.0 | 0.00 | 0.00 | 0.00 | 69 | 1011.7 |
| 20260509004039 | 55 | 0 | 0.0 | 3.0 | 0.00 | 0.00 | 0.00 | 69 | 1011.7 |
| 20260509003541 | 55 | 282 | 2.0 | 3.0 | 0.00 | 0.00 | 0.00 | 67 | 1011.9 |
| 20260509003052 | 54 | 284 | 1.0 | 3.0 | 0.00 | 0.00 | 0.00 | 68 | 1011.8 |
| 20260509002541 | 54 | 0 | 0.0 | 0.0 | 0.00 | 0.00 | 0.00 | 68 | 1011.8 |
| 20260509002041 | 54 | 0 | 0.0 | 0.0 | 0.00 | 0.00 | 0.00 | 69 | 1011.8 |
| 20260509001551 | 54 | 0 | 0.0 | 2.0 | 0.00 | 0.00 | 0.00 | 69 | 1011.6 |
| 20260509001041 | 55 | 0 | 0.0 | 3.0 | 0.00 | 0.00 | 0.00 | 67 | 1011.6 |
| 20260509000542 | 56 | 284 | 1.0 | 3.0 | 0.00 | 0.00 | 0.00 | 66 | 1011.6 |
| 20260509000049 | 58 | 284 | 0.0 | 3.0 | 0.00 | 0.00 | 0.00 | 64 | 1011.6 |
| 20260508235542 | 59 | 0 | 0.0 | 2.0 | 0.00 | 0.00 | 0.00 | 61 | 1011.6 |
| 20260508235040 | 60 | 0 | 0.0 | 2.0 | 0.00 | 0.00 | 0.00 | 57 | 1011.6 |
| 20260508234547 | 61 | 281 | 0.0 | 3.0 | 0.00 | 0.00 | 0.00 | 55 | 1011.4 |
| 20260508234042 | 61 | 0 | 0.0 | 3.0 | 0.00 | 0.00 | 0.00 | 52 | 1011.3 |
| 20260508233541 | 62 | 0 | 0.0 | 7.0 | 0.00 | 0.00 | 0.00 | 50 | 1011.3 |
| 20260508233102 | 62 | 281 | 2.0 | 7.0 | 0.00 | 0.00 | 0.00 | 50 | 1011.2 |
| 20260508232541 | 62 | 286 | 1.0 | 9.0 | 0.00 | 0.00 | 0.00 | 49 | 1011.2 |
| 20260508232042 | 62 | 281 | 3.0 | 10.0 | 0.00 | 0.00 | 0.00 | 50 | 1011.0 |
| 20260508231633 | 62 | 254 | 2.0 | 12.0 | 0.00 | 0.00 | 0.00 | 50 | 1011.0 |
| 20260508231041 | 62 | 290 | 2.0 | 12.0 | 0.00 | 0.00 | 0.00 | 50 | 1011.0 |
| 20260508230541 | 62 | 290 | 4.0 | 12.0 | 0.00 | 0.00 | 0.00 | 49 | 1010.9 |
| 20260508230100 | 62 | 270 | 4.0 | 8.0 | 0.00 | 0.00 | 0.00 | 49 | 1010.8 |
| 20260508225542 | 62 | 264 | 2.0 | 12.0 | 0.00 | 0.00 | 0.00 | 48 | 1010.9 |
| 20260508225108 | 62 | 279 | 7.0 | 13.0 | 0.00 | 0.00 | 0.00 | 49 | 1011.0 |
| 20260508224559 | 62 | 279 | 5.0 | 13.0 | 0.00 | 0.00 | 0.00 | 48 | 1011.0 |
| 20260508224041 | 62 | 306 | 4.0 | 15.0 | 0.00 | 0.00 | 0.00 | 48 | 1011.1 |
| 20260508223541 | 63 | 292 | 4.0 | 15.0 | 0.00 | 0.00 | 0.00 | 48 | 1011.1 |
| 20260508223054 | 63 | 271 | 5.0 | 10.0 | 0.00 | 0.00 | 0.00 | 46 | 1011.1 |